Location: Zapote
(9.9191°N, 84.0597°W)
Time: 18:09:38
(UTC-06:00)

Transit 2A - Pass Details

Date: 06 March 2021
Orbit: 602 x 957 km, 66.7° (Epoch: 16 April)

Event Time Altitude Azimuth Distance (km) Brightness Sun altitude
Rises 16:48:07 0° 221° (SW) 3,527 10.2 13.6°
Reaches altitude 10° 16:51:02 10° 232° (SW) 2,538 9.9 12.9°
Maximum altitude 16:56:03 29° 291° (WNW) 1,478 8.7 11.6°
Drops below altitude 10° 17:00:42 10° 350° (N) 2,335 8.6 10.5°
Sets 17:03:17 0° 2° (N) 3,200 9.1 9.9°
